This demonstration page uses our WeatherBlox Daily Observations layout. Learn more.

Left ArrowRight Arrow

Hourly Observations for December 1, 2021

Temp ( °F °C ) Dew Point ( °F °C ) Humidity (%) Winds ( mph kmh ) Pressure ( in mb ) Visibility ( mi km ) Precip ( " mm )
12:15 am 00:15 Clear 32 0 32 0 100 100 Calm 30.18 1022 10 16 N/A
12:35 am 00:35 Clear 30 -1 30 -1 100 100 S 3 6 30.17 1022 10 16 N/A
12:55 am 00:55 Clear 32 0 32 0 100 100 SSW 3 6 30.17 1022 10 16 N/A
1:15 am 01:15 Clear 30 -1 30 -1 100 100 SSW 3 6 30.17 1022 10 16 N/A
1:35 am 01:35 Clear 30 -1 30 -1 100 100 Calm 30.17 1022 10 16 N/A
1:55 am 01:55 Clear 28 -2 28 -2 100 100 Calm 30.15 1021 10 16 N/A
2:15 am 02:15 Clear 30 -1 30 -1 100 100 Calm 30.14 1021 10 16 N/A
2:35 am 02:35 Clear 28 -2 28 -2 100 100 Calm 30.14 1021 10 16 N/A
2:55 am 02:55 Partly Cloudy 30 -1 30 -1 100 100 SSE 3 6 30.14 1021 10 16 N/A
3:15 am 03:15 Partly Cloudy 32 0 32 0 100 100 Calm 30.14 1020 10 16 N/A
3:35 am 03:35 Clear 32 0 32 0 100 100 Calm 30.14 1020 10 16 N/A
3:55 am 03:55 Clear 32 0 32 0 100 100 SSE 3 6 30.14 1020 10 16 N/A
4:15 am 04:15 Partly Cloudy 34 1 34 1 100 100 SE 3 6 30.11 1020 10 16 N/A
4:35 am 04:35 Mostly Cloudy 32 0 32 0 100 100 Calm 30.12 1020 10 16 N/A
4:55 am 04:55 Cloudy 34 1 34 1 100 100 SE 3 6 30.12 1020 10 16 N/A
5:15 am 05:15 Mostly Cloudy 34 1 34 1 100 100 Calm 30.12 1020 10 16 N/A
5:35 am 05:35 Partly Cloudy 34 1 34 1 100 100 Calm 30.12 1020 10 16 N/A
6:15 am 06:15 Mostly Cloudy 36 2 34 1 93 93 SSE 6 9 30.11 1020 10 16 N/A
6:35 am 06:35 Cloudy 34 1 34 1 100 100 SSE 5 7 30.11 1020 10 16 N/A
6:55 am 06:55 Cloudy 36 2 34 1 93 93 SSE 6 9 30.11 1020 10 16 N/A
7:35 am 07:35 Cloudy 36 2 36 2 100 100 S 9 15 30.13 1020 10 16 N/A
8:15 am 08:15 Cloudy 36 2 36 2 100 100 S 7 11 30.13 1020 10 16 N/A
8:35 am 08:35 Cloudy 37 3 36 2 93 93 SSE 6 9 30.11 1020 7 11 N/A
8:55 am 08:55 Cloudy 37 3 37 3 100 100 SSE 6 9 30.10 1019 7 11 N/A
9:15 am 09:15 Cloudy 37 3 37 3 100 100 SSE 7 11 30.10 1019 7 11 N/A
9:35 am 09:35 Cloudy 37 3 37 3 100 100 SE 7 11 30.10 1019 7 11 N/A
9:55 am 09:55 Cloudy 37 3 37 3 100 100 SE 7 11 30.08 1019 7 11 N/A
10:15 am 10:15 Cloudy 37 3 37 3 100 100 SSE 7 11 30.08 1019 5 8 N/A
10:35 am 10:35 Cloudy 39 4 39 4 100 100 SE 7 11 30.07 1018 7 11 N/A
10:55 am 10:55 Cloudy 39 4 39 4 100 100 SE 5 7 30.07 1018 7 11 N/A
11:15 am 11:15 Cloudy 39 4 39 4 100 100 ESE 5 7 30.06 1018 10 16 N/A
11:35 am 11:35 Cloudy 41 5 41 5 100 100 SE 3 6 30.05 1018 10 16 N/A
11:55 am 11:55 Cloudy 41 5 41 5 100 100 ESE 6 9 30.04 1017 10 16 N/A
12:15 pm 12:15 Cloudy 41 5 41 5 100 100 E 8 13 30.01 1016 7 11 N/A
12:35 pm 12:35 Cloudy 43 6 43 6 100 100 E 8 13 29.97 1015 10 16 N/A
12:55 pm 12:55 Cloudy 43 6 43 6 100 100 E 8 13 29.96 1015 10 16 N/A
1:15 pm 13:15 Cloudy 45 7 45 7 100 100 E 5 7 29.94 1014 10 16 N/A
1:35 pm 13:35 Cloudy 43 6 43 6 100 100 ESE 8 13 29.93 1014 7 11 N/A
1:55 pm 13:55 Cloudy 43 6 43 6 100 100 SE 8 13 29.90 1013 5 8 N/A
2:15 pm 14:15 Cloudy 43 6 43 6 100 100 SE 10 17 29.89 1012 7 11 N/A
2:35 pm 14:35 Cloudy 43 6 43 6 100 100 SE 5 7 29.89 1012 5 8 N/A
2:55 pm 14:55 Cloudy 45 7 45 7 100 100 SSE 7 11 29.88 1012 7 11 N/A
3:15 pm 15:15 Cloudy 45 7 45 7 100 100 SSE 7 11 29.86 1011 7 11 N/A
3:35 pm 15:35 Cloudy 45 7 45 7 100 100 S 7 11 29.87 1012 7 11 N/A
3:55 pm 15:55 Cloudy 43 6 43 6 100 100 S 7 11 29.88 1012 7 11 N/A
4:15 pm 16:15 Cloudy 45 7 45 7 100 100 SSW 6 9 29.90 1013 7 11 N/A
4:35 pm 16:35 Cloudy 45 7 45 7 100 100 SSW 5 7 29.90 1013 10 16 N/A
4:55 pm 16:55 Cloudy 45 7 45 7 100 100 SSW 6 9 29.91 1013 10 16 N/A
5:15 pm 17:15 Cloudy 45 7 45 7 100 100 SW 8 13 29.91 1013 10 16 N/A
5:35 pm 17:35 Cloudy 45 7 45 7 100 100 SW 8 13 29.91 1013 10 16 N/A
5:55 pm 17:55 Cloudy 45 7 45 7 100 100 WSW 14 22 29.92 1013 7 11 N/A
6:15 pm 18:15 Cloudy 43 6 43 6 100 100 SSW 10 17 29.91 1013 7 11 N/A
6:35 pm 18:35 Cloudy 43 6 43 6 100 100 SW 8 13 29.93 1014 5 8 N/A
6:55 pm 18:55 Cloudy 43 6 43 6 100 100 SW 8 13 29.93 1014 4 6 N/A
7:35 pm 19:35 Cloudy 43 6 43 6 100 100 SW 10 17 29.94 1014 3 5 N/A
7:55 pm 19:55 Cloudy 45 7 45 7 100 100 SW 10 17 29.94 1014 3 5 N/A
8:15 pm 20:15 Cloudy 45 7 45 7 100 100 SW 9 15 29.94 1014 2 3 N/A
8:35 pm 20:35 Cloudy 45 7 45 7 100 100 SW 10 17 29.93 1014 3 5 N/A
8:55 pm 20:55 Cloudy 45 7 45 7 100 100 SW 8 13 29.93 1014 3 5 N/A

Powered by AerisWeather